FW7691 Weather Reports


Display with metric or nautical units.
time (UTC)temp
F
wind
direction
speed
MPH
gust
MPH
rain 1hr
in
rain 24hr
in
rain mn
in
humidity
%
barometer
mb
20260508225115 65 289 0.0 1.0 0.00 0.00 0.00 39 1007.0
20260508224613 65 257 1.0 2.0 0.00 0.00 0.00 40 1007.0
20260508224110 66 263 0.0 2.0 0.00 0.00 0.00 37 1007.0
20260508223608 66 288 0.0 1.0 0.00 0.00 0.00 39 1006.7
20260508223105 66 215 1.0 1.0 0.00 0.00 0.00 38 1006.8
20260508222602 66 316 1.0 2.0 0.00 0.00 0.00 40 1007.1
20260508222059 66 347 3.0 5.0 0.00 0.00 0.00 37 1007.1
20260508221555 66 250 1.0 1.0 0.00 0.00 0.00 40 1007.1
20260508221051 66 262 2.0 3.0 0.00 0.00 0.00 38 1007.1
20260508220548 67 203 2.0 2.0 0.00 0.00 0.00 38 1007.3
20260508220044 66 245 3.0 3.0 0.00 0.00 0.00 39 1007.1
20260508215541 66 313 4.0 5.0 0.00 0.00 0.00 39 1007.3
20260508215038 65 275 3.0 3.0 0.00 0.00 0.00 40 1007.1
20260508214535 66 240 3.0 3.0 0.00 0.00 0.00 40 1007.1
20260508214031 66 198 3.0 3.0 0.00 0.00 0.00 43 1007.2
20260508213529 65 290 1.0 1.0 0.00 0.00 0.00 41 1007.2
20260508213024 66 49 2.0 2.0 0.00 0.00 0.00 38 1007.2
20260508212521 66 292 1.0 1.0 0.00 0.00 0.00 40 1007.3
20260508212018 66 304 3.0 3.0 0.00 0.00 0.00 39 1007.6
20260508211513 67 248 3.0 5.0 0.00 0.00 0.00 39 1007.5
20260508211010 66 281 3.0 3.0 0.00 0.00 0.00 43 1007.3
20260508210506 66 318 4.0 5.0 0.00 0.00 0.00 39 1007.6
20260508210004 66 325 3.0 3.0 0.00 0.00 0.00 39 1007.5
20260508205501 65 344 3.0 3.0 0.00 0.00 0.00 40 1007.3
20260508204956 66 334 4.0 6.0 0.00 0.00 0.00 37 1007.5
20260508204454 66 257 1.0 2.0 0.00 0.00 0.00 38 1007.6
20260508203949 65 271 1.0 2.0 0.00 0.00 0.00 36 1007.6
20260508203446 65 308 3.0 5.0 0.00 0.00 0.00 38 1007.7
20260508202941 65 317 1.0 2.0 0.00 0.00 0.00 41 1007.7
20260508202439 64 200 3.0 3.0 0.00 0.00 0.00 41 1007.7
20260508201936 64 199 1.0 1.0 0.00 0.00 0.00 43 1008.0
20260508201432 63 228 1.0 2.0 0.00 0.00 0.00 41 1008.0
20260508200929 64 266 1.0 2.0 0.00 0.00 0.00 40 1008.0
20260508200426 65 239 1.0 1.0 0.00 0.00 0.00 38 1008.1
20260508195921 66 173 2.0 3.0 0.00 0.00 0.00 37 1008.1
20260508195419 65 309 5.0 6.0 0.00 0.00 0.00 34 1008.3
20260508194914 65 341 3.0 3.0 0.00 0.00 0.00 36 1008.6
20260508194412 66 328 4.0 7.0 0.00 0.00 0.00 38 1008.6
20260508193909 64 127 2.0 2.0 0.00 0.00 0.00 40 1008.5
20260508193406 64 159 2.0 2.0 0.00 0.00 0.00 41 1008.8
20260508192902 64 322 5.0 7.0 0.00 0.00 0.00 41 1008.7
20260508192359 65 208 0.0 1.0 0.00 0.00 0.00 41 1008.6
20260508191856 67 181 2.0 2.0 0.00 0.00 0.00 41 1008.6
20260508191354 65 182 6.0 7.0 0.00 0.00 0.00 41 1008.9
20260508190850 64 212 1.0 1.0 0.00 0.00 0.00 45 1008.9
20260508190347 65 270 1.0 2.0 0.00 0.00 0.00 41 1009.1
20260508185843 65 256 3.0 3.0 0.00 0.00 0.00 40 1009.1
20260508185341 64 215 1.0 1.0 0.00 0.00 0.00 39 1009.0
20260508184838 63 347 3.0 3.0 0.00 0.00 0.00 41 1009.1
20260508184335 63 290 2.0 2.0 0.00 0.00 0.00 40 1009.3
20260508183832 63 316 2.0 2.0 0.00 0.00 0.00 43 1009.4
20260508183328 63 297 2.0 3.0 0.00 0.00 0.00 43 1009.6
20260508182824 62 314 4.0 6.0 0.00 0.00 0.00 42 1009.6
20260508182321 63 247 2.0 2.0 0.00 0.00 0.00 42 1009.5
20260508181817 63 166 2.0 2.0 0.00 0.00 0.00 41 1009.4
20260508181314 63 213 1.0 2.0 0.00 0.00 0.00 44 1009.8
20260508180811 64 267 2.0 3.0 0.00 0.00 0.00 43 1009.8
20260508180308 65 244 2.0 3.0 0.00 0.00 0.00 43 1009.9
20260508175804 64 48 1.0 1.0 0.00 0.00 0.00 42 1009.9
20260508175301 63 280 0.0 1.0 0.00 0.00 0.00 40 1009.9
20260508174759 64 238 1.0 2.0 0.00 0.00 0.00 43 1010.0
20260508174256 63 294 2.0 3.0 0.00 0.00 0.00 42 1010.0
20260508173752 62 4 2.0 2.0 0.00 0.00 0.00 38 1010.1
20260508173249 63 248 2.0 3.0 0.00 0.00 0.00 42 1010.0
20260508172745 63 203 1.0 2.0 0.00 0.00 0.00 42 1010.3
20260508172242 63 232 1.0 2.0 0.00 0.00 0.00 41 1010.4
20260508171738 63 288 0.0 1.0 0.00 0.00 0.00 43 1010.4
20260508171234 63 163 1.0 2.0 0.00 0.00 0.00 43 1010.4
20260508170732 62 214 1.0 2.0 0.00 0.00 0.00 45 1010.6
20260508170230 61 171 3.0 3.0 0.00 0.00 0.00 42 1010.8
20260508165726 61 232 2.0 3.0 0.00 0.00 0.00 44 1010.8
20260508165224 61 340 6.0 11.0 0.00 0.00 0.00 43 1011.1
20260508164720 62 278 1.0 2.0 0.00 0.00 0.00 42 1011.1
20260508164216 62 199 1.0 1.0 0.00 0.00 0.00 44 1011.2
20260508163714 60 239 0.0 0.0 0.00 0.00 0.00 45 1011.0
20260508163212 61 182 3.0 6.0 0.00 0.00 0.00 44 1011.3
20260508162707 60 192 0.0 1.0 0.00 0.00 0.00 47 1011.2
20260508162204 60 280 3.0 3.0 0.00 0.00 0.00 46 1011.2
20260508161702 59 184 2.0 2.0 0.00 0.00 0.00 49 1011.2
20260508161159 59 287 2.0 3.0 0.00 0.00 0.00 47 1011.2
20260508160657 59 304 1.0 1.0 0.00 0.00 0.00 51 1011.4
20260508160154 59 177 4.0 5.0 0.00 0.00 0.00 49 1011.3
20260508155651 61 171 0.0 1.0 0.00 0.00 0.00 48 1011.4
20260508155148 59 305 1.0 2.0 0.00 0.00 0.00 50 1011.4
20260508154645 58 185 0.0 0.0 0.00 0.00 0.00 51 1011.5
20260508154142 58 171 2.0 2.0 0.00 0.00 0.00 53 1011.7
20260508153638 57 185 0.0 1.0 0.00 0.00 0.00 53 1011.7
20260508153136 57 163 3.0 5.0 0.00 0.00 0.00 54 1011.5
20260508152632 57 265 1.0 1.0 0.00 0.00 0.00 55 1011.7
20260508152127 58 203 0.0 1.0 0.00 0.00 0.00 55 1011.5
20260508151625 58 157 4.0 5.0 0.00 0.00 0.00 53 1011.8
20260508151121 57 92 3.0 3.0 0.00 0.00 0.00 56 1011.8
20260508150618 56 189 1.0 1.0 0.00 0.00 0.00 55 1011.8
20260508150115 57 189 2.0 2.0 0.00 0.00 0.00 57 1011.9
20260508145611 55 281 1.0 1.0 0.00 0.00 0.00 60 1011.9
20260508145107 56 263 0.0 1.0 0.00 0.00 0.00 59 1011.9
20260508144605 55 308 2.0 3.0 0.00 0.00 0.00 59 1012.1
20260508144102 55 161 3.0 3.0 0.00 0.00 0.00 59 1012.2
20260508143600 55 318 1.0 1.0 0.00 0.00 0.00 59 1012.1
20260508143056 56 319 4.0 5.0 0.00 0.00 0.00 55 1012.0
20260508142553 55 193 1.0 1.0 0.00 0.00 0.00 62 1012.2
20260508142050 55 262 0.0 0.0 0.00 0.00 0.00 65 1012.3
20260508141546 55 183 2.0 2.0 0.00 0.00 0.00 67 1012.1
20260508141044 55 266 1.0 1.0 0.00 0.00 0.00 66 1012.2
20260508140541 53 327 0.0 1.0 0.00 0.00 0.00 70 1012.3
20260508140037 52 299 0.0 1.0 0.00 0.00 0.00 71 1012.5
20260508135533 53 286 1.0 2.0 0.00 0.00 0.00 70 1012.6
20260508135030 52 257 0.0 0.0 0.00 0.00 0.00 72 1012.6
20260508134526 52 293 2.0 2.0 0.00 0.00 0.00 75 1012.6
20260508134023 52 332 3.0 3.0 0.00 0.00 0.00 75 1012.5
20260508133520 51 90 0.0 0.0 0.00 0.00 0.00 78 1012.5
20260508133017 53 326 2.0 2.0 0.00 0.00 0.00 75 1012.4
20260508132515 52 224 1.0 1.0 0.00 0.00 0.00 78 1012.7
20260508132012 51 25 1.0 1.0 0.00 0.00 0.00 78 1012.3
20260508131507 52 154 0.0 0.0 0.00 0.00 0.00 78 1012.4
20260508131004 51 239 0.0 0.0 0.00 0.00 0.00 82 1012.5
20260508130501 50 185 0.0 1.0 0.00 0.00 0.00 84 1012.6
20260508125956 49 188 2.0 2.0 0.00 0.00 0.00 86 1012.5
20260508125453 48 331 1.0 2.0 0.00 0.00 0.00 88 1012.6
20260508124951 48 294 0.0 1.0 0.00 0.00 0.00 90 1012.5
20260508124448 47 200 0.0 0.0 0.00 0.00 0.00 92 1012.7
20260508123946 46 282 1.0 1.0 0.00 0.00 0.00 94 1012.5
20260508123444 46 254 0.0 1.0 0.00 0.00 0.00 95 1012.6
20260508122940 46 268 0.0 1.0 0.00 0.00 0.00 96 1012.6
20260508122437 45 311 1.0 1.0 0.00 0.00 0.00 97 1012.4
20260508121934 45 261 1.0 1.0 0.00 0.00 0.00 97 1012.4
20260508121433 44 233 0.0 0.0 0.00 0.00 0.00 97 1012.5
20260508120930 44 198 0.0 0.0 0.00 0.00 0.00 98 1012.3
20260508120428 44 273 0.0 1.0 0.00 0.00 0.00 98 1012.1
20260508115925 43 226 0.0 0.0 0.00 0.00 0.00 99 1012.1
20260508115423 42 226 0.0 0.0 0.00 0.00 0.00 98 1012.1
20260508114919 41 226 0.0 0.0 0.00 0.00 0.00 98 1012.1
20260508114416 40 226 0.0 0.0 0.00 0.00 0.00 98 1011.9
20260508113912 39 227 0.0 0.0 0.00 0.00 0.00 98 1012.1
20260508113411 38 227 0.0 0.0 0.00 0.00 0.00 98 1011.9
20260508112908 38 227 0.0 0.0 0.00 0.00 0.00 98 1011.8
20260508112404 37 227 0.0 0.0 0.00 0.00 0.00 98 1012.0
20260508111901 37 227 0.0 0.0 0.00 0.00 0.00 98 1011.7
20260508111358 37 227 0.0 0.0 0.00 0.00 0.00 98 1011.8
20260508110855 36 227 0.0 0.0 0.00 0.00 0.00 98 1011.8
20260508110353 36 227 0.0 0.0 0.00 0.00 0.00 98 1011.7
20260508105852 36 227 0.0 0.0 0.00 0.00 0.00 98 1011.7
20260508105349 36 226 0.0 0.0 0.00 0.00 0.00 98 1011.4
20260508104846 35 226 0.0 0.0 0.00 0.00 0.00 98 1011.4
20260508104343 35 226 0.0 0.0 0.00 0.00 0.00 98 1011.4
20260508103841 35 226 0.0 0.0 0.00 0.00 0.00 97 1011.5
20260508103337 36 226 0.0 0.0 0.00 0.00 0.00 97 1011.5
20260508102835 36 226 0.0 0.0 0.00 0.00 0.00 98 1011.5
20260508102333 36 226 0.0 0.0 0.00 0.00 0.00 97 1011.3
20260508101830 36 226 0.0 0.0 0.00 0.00 0.00 98 1011.4
20260508101327 36 226 0.0 0.0 0.00 0.00 0.00 97 1011.5
20260508100824 36 226 0.0 0.0 0.00 0.00 0.00 97 1011.5
20260508100323 37 226 0.0 0.0 0.00 0.00 0.00 97 1011.3
20260508095818 37 226 0.0 0.0 0.00 0.00 0.00 97 1011.3
20260508095316 37 226 0.0 0.0 0.00 0.00 0.00 97 1011.6
20260508094813 37 226 0.0 0.0 0.00 0.00 0.00 97 1011.5
20260508094310 37 226 0.0 0.0 0.00 0.00 0.00 97 1011.6
20260508093807 37 226 0.0 0.0 0.00 0.00 0.00 97 1011.5
20260508093304 37 226 0.0 0.0 0.00 0.00 0.00 97 1011.5
20260508092801 37 226 0.0 0.0 0.00 0.00 0.00 97 1011.5
20260508092259 37 226 0.0 0.0 0.00 0.00 0.00 97 1011.3
20260508091757 37 226 0.0 0.0 0.00 0.00 0.00 97 1011.3
20260508091254 37 226 0.0 0.0 0.00 0.00 0.00 97 1011.4
20260508090751 37 226 0.0 0.0 0.00 0.00 0.00 97 1011.4
20260508090249 37 226 0.0 0.0 0.00 0.00 0.00 97 1011.5
20260508085745 37 226 0.0 0.0 0.00 0.00 0.00 97 1011.4
20260508085242 37 226 0.0 0.0 0.00 0.00 0.00 97 1011.4
20260508084737 37 226 0.0 0.0 0.00 0.00 0.00 97 1011.4
20260508084235 37 226 0.0 0.0 0.00 0.00 0.00 97 1011.6
20260508083733 37 227 0.0 0.0 0.00 0.00 0.00 97 1011.6
20260508083230 37 227 0.0 0.0 0.00 0.00 0.00 97 1011.6
20260508082725 38 227 0.0 0.0 0.00 0.00 0.00 97 1011.6
20260508082223 38 227 0.0 0.0 0.00 0.00 0.00 97 1011.5
20260508081720 38 227 0.0 0.0 0.00 0.00 0.00 97 1011.5
20260508081217 38 227 0.0 0.0 0.00 0.00 0.00 97 1011.8
20260508080714 38 227 0.0 0.0 0.00 0.00 0.00 97 1011.7
20260508080212 39 227 0.0 0.0 0.00 0.00 0.00 97 1011.8
20260508075708 39 227 0.0 0.0 0.00 0.00 0.00 96 1011.8
20260508075205 39 227 0.0 0.0 0.00 0.00 0.00 96 1011.6
20260508074703 39 227 0.0 0.0 0.00 0.00 0.00 96 1011.8
20260508074200 39 227 0.0 0.0 0.00 0.00 0.00 96 1011.9
20260508073657 39 227 0.0 0.0 0.00 0.00 0.00 96 1011.7
20260508073155 39 227 0.0 0.0 0.00 0.00 0.00 96 1011.8
20260508072650 39 227 0.0 0.0 0.00 0.00 0.00 96 1012.0
20260508072148 39 227 0.0 0.0 0.00 0.00 0.00 96 1012.0
20260508071645 39 227 0.0 0.0 0.00 0.00 0.00 96 1012.0
20260508071143 39 227 0.0 0.0 0.00 0.00 0.00 96 1012.1
20260508070640 39 227 0.0 0.0 0.00 0.00 0.00 96 1012.2
20260508070139 39 227 0.0 0.0 0.00 0.00 0.00 96 1012.3
20260508065636 39 227 0.0 0.0 0.00 0.00 0.00 96 1012.4
20260508065134 38 227 0.0 0.0 0.00 0.00 0.00 95 1012.3
20260508064631 38 227 0.0 0.0 0.00 0.00 0.00 95 1012.4
20260508064129 38 227 0.0 0.0 0.00 0.00 0.00 95 1012.3
20260508063626 38 227 0.0 0.0 0.00 0.00 0.00 95 1012.6
20260508063124 38 227 0.0 0.0 0.00 0.00 0.00 95 1012.4
20260508062621 38 227 0.0 0.0 0.00 0.00 0.00 95 1012.5
20260508062118 38 227 0.0 0.0 0.00 0.00 0.00 94 1012.3
20260508061615 38 227 0.0 0.0 0.00 0.00 0.00 94 1012.3
20260508061113 39 227 0.0 0.0 0.00 0.00 0.00 94 1012.5
20260508060609 39 227 0.0 0.0 0.00 0.00 0.00 94 1012.2
20260508060107 39 227 0.0 0.0 0.00 0.00 0.00 94 1012.3
20260508055602 39 227 0.0 0.0 0.00 0.00 0.00 94 1012.1
20260508055059 40 227 0.0 0.0 0.00 0.00 0.00 94 1012.3
20260508054555 40 227 0.0 0.0 0.00 0.00 0.00 94 1012.2
20260508054053 40 227 0.0 0.0 0.00 0.00 0.00 94 1012.4
20260508053549 40 227 0.0 0.0 0.00 0.00 0.00 94 1012.3
20260508053048 40 227 0.0 0.0 0.00 0.00 0.00 94 1012.1
20260508052545 40 227 0.0 0.0 0.00 0.00 0.00 94 1012.1
20260508052041 40 227 0.0 0.0 0.00 0.00 0.00 94 1012.0
20260508051538 40 227 0.0 0.0 0.00 0.00 0.00 94 1012.1
20260508051033 41 227 0.0 0.0 0.00 0.00 0.00 94 1012.0
20260508050530 41 227 0.0 0.0 0.00 0.00 0.00 94 1012.2
20260508050027 41 226 0.0 0.0 0.00 0.00 0.00 94 1012.2
20260508045523 41 227 0.0 0.0 0.00 0.00 0.00 93 1012.2
20260508045021 41 227 0.0 0.0 0.00 0.00 0.00 93 1012.1
20260508044518 41 227 0.0 0.0 0.00 0.00 0.00 93 1012.1
20260508044014 40 227 0.0 0.0 0.00 0.00 0.00 93 1012.0
20260508043511 40 227 0.0 0.0 0.00 0.00 0.00 93 1012.1
20260508043008 40 226 0.0 0.0 0.00 0.00 0.00 93 1011.9
20260508042505 40 226 0.0 0.0 0.00 0.00 0.00 92 1012.0
20260508042002 40 227 0.0 0.0 0.00 0.00 0.00 92 1012.1
20260508041458 40 227 0.0 0.0 0.00 0.00 0.00 92 1011.9
20260508040955 40 227 0.0 0.0 0.00 0.00 0.00 92 1012.1
20260508040452 40 227 0.0 0.0 0.00 0.00 0.00 91 1012.0
20260508035950 40 226 0.0 0.0 0.00 0.00 0.00 91 1012.1
20260508035446 40 227 0.0 0.0 0.00 0.00 0.00 91 1011.9
20260508034943 40 226 0.0 0.0 0.00 0.00 0.00 90 1012.2
20260508034441 41 227 0.0 0.0 0.00 0.00 0.00 89 1012.1
20260508033937 41 227 0.0 0.0 0.00 0.00 0.00 89 1012.0
20260508033435 41 226 0.0 0.0 0.00 0.00 0.00 89 1011.8
20260508032932 41 227 0.0 0.0 0.00 0.00 0.00 88 1012.1
20260508032430 42 226 0.0 0.0 0.00 0.00 0.00 88 1012.1
20260508031926 42 226 0.0 0.0 0.00 0.00 0.00 88 1012.0
20260508031424 43 226 0.0 0.0 0.00 0.00 0.00 87 1012.1
20260508030919 43 226 0.0 0.0 0.00 0.00 0.00 86 1012.1
20260508030417 44 226 0.0 0.0 0.00 0.00 0.00 86 1012.0
20260508025914 44 227 0.0 0.0 0.00 0.00 0.00 85 1012.1
20260508025410 44 227 0.0 0.0 0.00 0.00 0.00 85 1012.1
20260508024907 44 226 0.0 0.0 0.00 0.00 0.00 84 1012.2
20260508024404 45 226 0.0 0.0 0.00 0.00 0.00 83 1012.3
20260508023900 45 226 0.0 0.0 0.00 0.00 0.00 82 1012.0
20260508023357 45 223 1.0 1.0 0.00 0.00 0.00 81 1012.0
20260508022854 45 218 0.0 0.0 0.00 0.00 0.00 80 1012.1
20260508022350 46 229 0.0 0.0 0.00 0.00 0.00 79 1012.1
20260508021847 46 209 0.0 1.0 0.00 0.00 0.00 79 1011.9
20260508021343 46 195 0.0 1.0 0.00 0.00 0.00 78 1011.8
20260508020839 46 191 0.0 0.0 0.00 0.00 0.00 78 1011.9
20260508020337 45 205 0.0 0.0 0.00 0.00 0.00 79 1012.0
20260508015834 45 196 0.0 1.0 0.00 0.00 0.00 79 1011.9
20260508015332 46 204 0.0 1.0 0.00 0.00 0.00 79 1011.7
20260508014828 46 194 1.0 1.0 0.00 0.00 0.00 78 1011.7
20260508014325 46 198 0.0 1.0 0.00 0.00 0.00 77 1012.0
20260508013820 46 204 0.0 1.0 0.00 0.00 0.00 77 1011.8
20260508013317 46 251 0.0 0.0 0.00 0.00 0.00 76 1011.4
20260508012815 47 251 0.0 0.0 0.00 0.00 0.00 76 1011.5
20260508012312 47 252 1.0 1.0 0.00 0.00 0.00 74 1011.5
20260508011809 48 253 1.0 1.0 0.00 0.00 0.00 73 1011.7
20260508011307 48 253 0.0 0.0 0.00 0.00 0.00 72 1011.9
20260508010804 49 253 1.0 1.0 0.00 0.00 0.00 70 1011.8
20260508010302 49 254 1.0 1.0 0.00 0.00 0.00 69 1011.8
20260508005758 49 205 1.0 1.0 0.00 0.00 0.00 68 1011.9
20260508005255 50 184 2.0 2.0 0.00 0.00 0.00 66 1011.9
20260508004750 50 261 0.0 0.0 0.00 0.00 0.00 65 1012.0
20260508004247 50 257 1.0 1.0 0.00 0.00 0.00 63 1011.9
20260508003744 50 262 1.0 1.0 0.00 0.00 0.00 63 1011.7
20260508003242 50 338 3.0 3.0 0.00 0.00 0.00 62 1011.9
20260508002737 50 267 0.0 1.0 0.00 0.00 0.00 62 1011.6
20260508002235 50 286 0.0 1.0 0.00 0.00 0.00 61 1011.8
20260508001731 51 287 0.0 0.0 0.00 0.00 0.00 60 1011.5
20260508001226 51 278 3.0 3.0 0.00 0.00 0.00 59 1011.5
20260508000723 51 331 3.0 7.0 0.00 0.00 0.00 59 1011.5
20260508000220 51 276 2.0 2.0 0.00 0.00 0.00 58 1011.6
20260507235716 51 0 5.0 6.0 0.00 0.00 0.00 57 1011.9
20260507235214 51 311 3.0 3.0 0.00 0.00 0.00 57 1011.6
20260507234711 52 318 1.0 2.0 0.00 0.00 0.00 57 1011.5
20260507234207 53 274 1.0 2.0 0.00 0.00 0.00 52 1011.4
20260507233704 53 237 2.0 2.0 0.00 0.00 0.00 52 1011.6
20260507233202 53 222 1.0 2.0 0.00 0.00 0.00 48 1011.5
20260507232659 54 296 1.0 2.0 0.00 0.00 0.00 45 1011.2
20260507232156 54 289 1.0 1.0 0.00 0.00 0.00 47 1011.4
20260507231653 54 285 1.0 1.0 0.00 0.00 0.00 45 1011.4
20260507231150 54 60 1.0 2.0 0.00 0.00 0.00 46 1011.2
20260507230646 55 255 2.0 2.0 0.00 0.00 0.00 45 1011.3
20260507230143 56 255 0.0 1.0 0.00 0.00 0.00 44 1011.4
20260507225643 55 267 1.0 1.0 0.00 0.00 0.00 43 1011.4